DELTA 1 DEB, 7026

Orbit data source: Space-Track

DELTA 1 DEB, 7026 is space debris in SSO originally from a launch on Tue, 06 Nov 1973 UTC launched from the Air Force Western Test Range (AFWTR). Debris objects in space refer to the collection of defunct objects orbiting the Earth. Examples of debris include non-operational satellites, rocket bodies, and fragments generated from explosions, collisions, or faulty payload assembly.

Loading next visibility...
Identifier
7026, 1973-086S
Orbit
SSO
Country
Flag of USUS
Related business
Manufacturer
Unknown
Mission
Spacecraft
Bus & Motor
Unknown
Mass
Unknown
Launch date (UTC)
1973-11-06 (52 years ago)
Launch vehicle
Unknown
Launch site
Air Force Western Test Range (AFWTR)
Object type
Payload
Rocket body
Debris
Shape & HBR
Unknown shape, 0.1 m
Radar Cross Section
Small (<0.1 m²)

Expand to show TLE details & history
Last TLE update: 15 hours ago

TLE from 15 hours ago
0 DELTA 1 DEB
1  7026U 73086S   25298.23079730  .00000482  00000-0  28167-2 0  9996
2  7026 102.0878  40.6954 0130693 240.4483 148.1598 12.63673952384957
Epoch: 2025-10-25T05:32Z
TLE epoch observation values (Epoch: 2025-10-25T05:32:20.886Z)
Latitude
28.71821°
Longitude
-82.96135°
Altitude
1,497.901 km
Speed
7.078 km/s
True Right ascension
02h 15m 57s
True Declination
28° 35' 14"
Sunlit
Object was in full shadow at epoch
Visualization orbit readout
Latitude
Unknown
Longitude
Unknown
Altitude
Unknown
Speed
Unknown
Apparent Right ascension
Unknown
Apparent Declination
Unknown
Sunlit
N/A
Visualization observer readout
Local Sidereal Time
16:11:14
Azimuth
Unknown
Elevation
Unknown
Doppler factor
Unknown
Orbital elements
Apogee altitude
1,507.09 km
Perigee altitude
1,303.64 km
Semi-major axis
7,783.502 km
Eccentricity
0.01307
Inclination
102.0878°
RAAN
40.6954°
Arg. of periapsis
240.4483°
True anomaly
148.93903°
Mean anomaly
148.1598°
Eccentric anomaly
148.55049°
Mean motion
3.16068 °/min
Orbital period
113.9 mins
BSTAR
0.0028167
Loading maneuver chart data...
Computing Atmospheric mass density...
Loading historical data...
Loading historical data...
Loading historical data...
Loading historical data...
Loading historical data...
Loading historical data...
Loading historical data...

Documentation

Showing up to 5 results
|